Weather History for Chevak, AK

Change the Weather History Date:

Saturday, March 9, 2013

  Actual Average (PAHP) Record (PAHP)
Temperature  
Mean Temperature 21 °F -  
Max Temperature 28 °F 16 °F 32 °F (2009)
Min Temperature 10 °F 6 °F -61 °F (2011)
Degree Days  
Heating Degree Days 44    
Moisture  
Dew Point 24 °F    
Average Humidity 96    
Maximum Humidity 100    
Minimum Humidity 86    
Precipitation  
Precipitation 0.00 in - - ()
Sea Level Pressure  
Sea Level Pressure 29.79 in    
Wind  
Wind Speed 23 mph (SSW)    
Max Wind Speed 36 mph    
Max Gust Speed 43 mph    
Visibility 4 miles    
Events Fog , Snow    
Averages and records for this station are not official NWS values.
T = Trace of Precipitation, MM = Missing Value Source: NWS Daily Summary

Daily Weather History Graph

Daily Weather History Graph

Search for Another Location

Airport:

Trip Planner

Search our weather history database for the weather conditions in past years. The results will help you decide how hot, cold, wet, or windy it might be!

Date:

Astronomy

Mar. 09, 2013 Rise Set
Actual Time 8:37 AM AKST 7:49 PM AKST
Civil Twilight 7:53 AM AKST 8:33 PM AKST
Nautical Twilight 7:02 AM AKST 9:24 PM AKST
Astronomical Twilight 6:09 AM AKST 10:18 PM AKST
Moon 7:34 AM AKST (3/9) 5:47 PM AKST (3/9)
Length of Visible Light 12h 39m
Length of Day
11h 12m
Waning Crescent, 5% of the Moon is Illuminated
Mar 9
Waning Crescent
Mar 11
New
Mar 19
First Quarter
Mar 27
Full
Apr 2
Last Quarter

Hourly Weather History & Observations

Time (AKST) Temp. Windchill Dew Point Humidity Pressure Visibility Wind Dir Wind Speed Gust Speed Precip Events Conditions
12:05 AM 15.8 °F -2.7 °F 12.2 °F 86% 29.67 in 10.0 mi West 24.2 mph - N/A   Scattered Clouds
12:57 AM 12.9 °F -4.9 °F 10.9 °F 92% 29.72 in 10.0 mi West 19.6 mph - N/A   Clear
1:57 AM 12.0 °F -6.5 °F 9.0 °F 88% 29.76 in 10.0 mi West 20.7 mph - N/A   Clear
2:57 AM 10.9 °F -7.5 °F 9.0 °F 92% 29.80 in 10.0 mi West 19.6 mph - N/A   Clear
3:57 AM 10.9 °F -3.4 °F 9.0 °F 92% 29.84 in 10.0 mi WSW 11.5 mph - N/A   Partly Cloudy
4:57 AM 10.0 °F -5.2 °F 9.0 °F 95% 29.86 in 10.0 mi WSW 12.7 mph - N/A   Partly Cloudy
5:57 AM 12.0 °F -2.0 °F 10.0 °F 92% 29.87 in 10.0 mi South 11.5 mph - N/A   Mostly Cloudy
6:47 AM 14.0 °F -0.2 °F 12.2 °F 93% 29.87 in 9.0 mi South 12.7 mph - 0.00 in Snow Light Snow
6:57 AM 14.0 °F -0.2 °F 12.9 °F 95% 29.88 in 9.0 mi South 12.7 mph - 0.00 in Snow Light Snow
7:45 AM 17.6 °F 3.7 °F 15.8 °F 93% 29.87 in 9.0 mi SSE 13.8 mph - 0.00 in Snow Light Snow
7:57 AM 17.1 °F 3.0 °F 16.0 °F 96% 29.88 in 9.0 mi South 13.8 mph - 0.00 in Snow Light Snow
8:57 AM 19.0 °F 5.0 °F 18.0 °F 96% 29.88 in 9.0 mi South 15.0 mph - 0.00 in Snow Light Snow
9:57 AM 19.0 °F 5.6 °F 17.1 °F 92% 29.87 in 10.0 mi SSE 13.8 mph - 0.00 in   Clear
10:57 AM 19.9 °F 4.8 °F 18.0 °F 92% 29.86 in 10.0 mi SSE 18.4 mph - N/A   Partly Cloudy
11:34 AM 21.2 °F 5.2 °F 19.4 °F 93% 29.84 in 10.0 mi SSE 21.9 mph - N/A   Overcast
11:46 AM 21.2 °F 5.2 °F 19.4 °F 93% 29.83 in 2.0 mi SSE 21.9 mph - 0.00 in Snow Light Snow
11:49 AM 21.2 °F 4.9 °F 19.4 °F 93% 29.83 in 1.5 mi SSE 23.0 mph - 0.00 in Snow Light Snow
11:57 AM 23.0 °F 6.9 °F 21.2 °F 93% 29.83 in 1.2 mi SSE 24.2 mph - 0.00 in Snow Light Snow
12:03 PM 23.0 °F 6.6 °F 21.2 °F 93% 29.83 in 1.0 mi SSE 25.3 mph - 0.00 in Snow Light Snow
12:15 PM 24.8 °F 9.3 °F 21.2 °F 86% 29.82 in 0.8 mi SSE 24.2 mph 31.1 mph 0.00 in Snow Light Snow
12:42 PM 24.8 °F 9.0 °F 24.8 °F 100% 29.81 in 1.0 mi SSE 25.3 mph - 0.00 in Snow Light Snow
12:46 PM 25.0 °F 8.6 °F 24.1 °F 96% 29.83 in 1.0 mi SSE 27.6 mph - 0.00 in Snow Light Snow
12:48 PM 24.8 °F 9.0 °F 24.8 °F 100% 29.81 in 0.8 mi SSE 25.3 mph - 0.00 in Snow Light Snow
12:57 PM 26.6 °F 11.1 °F 24.8 °F 93% 29.81 in 0.8 mi SSE 26.5 mph - 0.00 in Snow Light Snow
1:01 PM 26.6 °F 11.1 °F 24.8 °F 93% 29.81 in 0.5 mi SSE 26.5 mph 33.4 mph 0.00 in Fog , Snow Snow
1:07 PM 26.6 °F 11.1 °F 26.6 °F 100% 29.81 in 0.8 mi SSE 26.5 mph 33.4 mph 0.00 in Snow Light Snow
1:12 PM 26.6 °F 11.1 °F 26.6 °F 100% 29.81 in 0.8 mi SSE 26.5 mph - 0.00 in Snow Light Snow
1:15 PM 26.6 °F 10.8 °F 26.6 °F 100% 29.81 in 0.5 mi South 27.6 mph - 0.00 in Fog , Snow Light Snow
1:41 PM 28.4 °F 13.3 °F 26.6 °F 93% 29.81 in 0.2 mi South 27.6 mph 34.5 mph 0.00 in Fog , Snow Heavy Snow
1:57 PM 28.0 °F 12.0 °F 27.0 °F 96% 29.82 in 0.2 mi South 31.1 mph 34.5 mph 0.00 in Fog , Snow Heavy Snow
2:02 PM 28.4 °F 13.0 °F 28.4 °F 100% 29.81 in 0.5 mi South 28.8 mph 34.5 mph 0.00 in Fog , Snow Snow
2:22 PM 28.4 °F 12.3 °F 28.4 °F 100% 29.80 in 0.8 mi South 32.2 mph 42.6 mph 0.00 in Snow Light Snow
2:26 PM 28.4 °F 12.5 °F 28.4 °F 100% 29.80 in 0.5 mi South 31.1 mph 36.8 mph 0.00 in Fog , Snow Snow
2:54 PM 28.4 °F 12.3 °F 28.4 °F 100% 29.78 in 0.5 mi South 32.2 mph 36.8 mph 0.00 in Fog , Snow Snow
2:57 PM 30.2 °F 15.2 °F 28.4 °F 93% 29.79 in 0.5 mi South 29.9 mph 36.8 mph 0.00 in Fog , Snow Snow
3:19 PM 30.2 °F 14.9 °F 28.4 °F 93% 29.78 in 0.5 mi South 31.1 mph 36.8 mph 0.00 in Fog , Snow Snow
3:53 PM 30.2 °F 14.1 °F 30.2 °F 100% 29.76 in 0.8 mi South 35.7 mph 40.3 mph 0.00 in Snow Light Snow
3:57 PM 30.9 °F 15.7 °F 30.0 °F 96% 29.76 in 0.8 mi South 32.2 mph 40.3 mph 0.00 in Snow Light Snow
4:07 PM 30.2 °F 14.5 °F 30.2 °F 100% 29.75 in 0.5 mi South 33.4 mph 40.3 mph 0.00 in Fog , Snow Light Snow
4:37 PM 30.2 °F 14.9 °F 30.2 °F 100% 29.74 in 0.8 mi South 31.1 mph 36.8 mph 0.00 in Snow Light Snow
4:57 PM 30.9 °F 16.7 °F 30.0 °F 96% 29.73 in 0.8 mi South 27.6 mph - 0.00 in Snow Light Snow
5:08 PM 30.2 °F 15.7 °F 30.2 °F 100% 29.72 in 0.5 mi South 27.6 mph - 0.00 in Fog , Snow Snow
5:16 PM 30.2 °F 15.4 °F 30.2 °F 100% 29.72 in 0.8 mi South 28.8 mph - 0.00 in Snow Light Snow
5:27 PM 30.2 °F 15.7 °F 30.2 °F 100% 29.72 in 1.0 mi South 27.6 mph - 0.00 in Snow Light Snow
5:37 PM 30.2 °F 15.7 °F 30.2 °F 100% 29.72 in 1.0 mi South 27.6 mph - 0.00 in Snow Light Snow
5:48 PM 30.2 °F 15.7 °F 30.2 °F 100% 29.71 in 1.2 mi SSW 27.6 mph - 0.00 in Snow Light Snow
5:57 PM 30.9 °F 17.5 °F 30.9 °F 100% 29.72 in 1.8 mi SSW 24.2 mph - 0.00 in Snow Light Snow
6:16 PM 32.0 °F 18.4 °F 30.2 °F 93% 29.71 in 2.5 mi SSW 26.5 mph - 0.00 in Snow Light Snow
6:33 PM 30.2 °F 16.2 °F 30.2 °F 100% 29.71 in 4.0 mi SW 25.3 mph - 0.00 in Snow Light Snow
6:57 PM 30.9 °F 16.9 °F 30.9 °F 100% 29.72 in 10.0 mi SW 26.5 mph - 0.00 in   Overcast
7:15 PM 30.2 °F 14.3 °F 30.2 °F 100% 29.69 in 6.0 mi WSW 34.5 mph 39.1 mph 0.00 in Snow Light Snow
7:36 PM 28.4 °F 12.7 °F 28.4 °F 100% 29.73 in 9.0 mi WSW 29.9 mph - 0.00 in Snow Light Snow
7:57 PM 28.4 °F 12.3 °F 28.4 °F 100% 29.72 in 5.0 mi WSW 32.2 mph - 0.00 in Snow Light Snow
8:15 PM 28.4 °F 12.7 °F 28.4 °F 100% 29.73 in 8.0 mi WSW 29.9 mph - 0.00 in Snow Light Snow
8:28 PM 30.2 °F 15.9 °F 28.4 °F 93% 29.75 in 9.0 mi West 26.5 mph - 0.00 in Snow Light Snow
8:36 PM 28.4 °F 14.1 °F 28.4 °F 100% 29.76 in 9.0 mi West 24.2 mph - 0.00 in   Overcast
8:45 PM 28.9 °F 15.1 °F 28.0 °F 96% 29.77 in 10.0 mi West 23.0 mph - 0.00 in Snow Light Snow
8:50 PM 28.4 °F 14.1 °F 28.4 °F 100% 29.76 in 9.0 mi WSW 24.2 mph - 0.00 in Snow Light Snow
8:57 PM 28.9 °F 15.4 °F 28.0 °F 96% 29.79 in 9.0 mi West 21.9 mph - 0.00 in Snow Light Snow
9:11 PM 28.4 °F 15.1 °F 28.4 °F 100% 29.79 in 4.0 mi WSW 20.7 mph - 0.00 in Snow Light Snow
9:44 PM 28.4 °F 14.7 °F 26.6 °F 93% 29.80 in 9.0 mi WSW 21.9 mph - 0.00 in Snow Light Snow
10:17 PM 28.4 °F 14.4 °F 26.6 °F 93% 29.81 in 3.0 mi WSW 23.0 mph - 0.00 in Snow Light Snow
10:57 PM 28.4 °F 14.1 °F 26.6 °F 93% 29.83 in 4.0 mi WSW 24.2 mph - 0.00 in Snow Light Snow
11:53 PM 28.4 °F 16.2 °F 26.6 °F 93% 29.89 in 7.0 mi WNW 17.3 mph - 0.00 in Snow Light Snow